Location: Pinhead Observatory
(34.4473°N, 118.1985°W)
Time: 14:05:26
(UTC-07:00)

Daily predictions for brighter satellites

Satellite Brightness Start Highest point End
(mag) Time Altitude Azimuth Time Altitude Azimuth Time Altitude Azimuth
Cosmos 1743 2.8 20:25:14 10° N 20:29:05 85° W 20:32:52 10° S
Cosmos 1892 Rocket 3.9 20:27:12 10° SSW 20:31:37 74° W 20:36:06 10° N
Cosmos 1331 Rocket 4.0 20:27:41 10° NNW 20:32:53 87° W 20:38:02 10° SSE
ISS -2.8 20:32:47 10° SW 20:36:00 63° NW 20:39:15 10° NE
Aureole 2 Rocket 3.3 20:33:16 10° SSW 20:37:10 60° WNW 20:40:44 10° N
Cosmos 1461 3.4 20:33:43 10° NNW 20:37:49 45° ENE 20:41:33 11° SE
Resurs 01 Rocket 4.1 20:35:02 10° SSW 20:38:31 23° W 20:42:01 10° NW
Abrixas rocket 2.3 20:35:25 10° NW 20:38:51 83° SW 20:42:02 11° SE
Atlas Centaur 2 2.9 20:32:52 10° WSW 20:39:29 59° S 20:47:29 10° E
Meteor 1-15 Rocket 4.4 20:34:35 10° N 20:40:07 57° E 20:45:42 10° SSE
ALOS 2.4 20:40:46 10° S 20:45:25 82° WSW 20:50:07 10° NNW
Cosmos 1603 3.6 20:39:51 10° SSW 20:45:27 79° ESE 20:51:04 10° NNE
Cosmos 1302 Rocket 4.0 20:40:21 10° NNW 20:45:35 70° ENE 20:50:50 10° SSE
ATLAS 3B R/B 3.4 20:43:31 10° S 20:50:29 39° ESE 20:57:23 10° NE
FENGYUN 3A 3.8 20:45:44 10° S 20:51:06 80° WSW 20:56:31 10° NNW
GEOS 3 Rocket 3.9 20:48:04 12° SE 20:52:54 59° NE 20:58:02 10° NNW
Meteor 2-9 Rocket 4.3 20:47:26 10° N 20:53:12 81° E 20:59:03 10° S
Cosmos 1939 Rocket 3.8 20:50:39 13° SE 20:53:50 34° ENE 20:57:35 10° N
USA 186 2.5 20:52:23 10° S 20:55:06 43° W 20:57:40 10° NNW
ERS-1 Rocket 2.9 20:57:22 10° SSE 21:02:21 77° ENE 21:07:23 10° N
Cosmos 1891 Rocket 4.4 20:56:16 10° N 21:02:23 75° E 21:08:23 10° S
SPOT 5 3.6 21:02:15 17° ESE 21:04:50 30° ENE 21:08:38 10° N
H-2A R/B 3.8 21:01:53 10° S 21:05:39 45° W 21:09:29 10° NNW
CZ-4 DEB 4.3 21:03:11 10° SSW 21:06:09 34° W 21:09:08 10° NNW
Cosmos 1943 3.5 21:01:26 10° S 21:06:47 46° ESE 21:12:12 10° NE
Cosmos 1346 Rocket 4.2 21:09:56 18° E 21:10:27 19° E 21:13:14 10° NE
Cosmos 1602 Rocket 3.8 21:09:06 10° SSW 21:13:33 72° W 21:18:02 10° N
PSLV R/B 4.2 21:13:28 26° ESE 21:14:20 30° ENE 21:17:07 10° N
Envisat 3.3 21:11:37 19° SE 21:15:08 52° ENE 21:20:04 10° N
Cosmos 1825 Rocket 4.3 21:15:30 22° SE 21:17:41 35° E 21:21:43 10° NNE
Cosmos 407 Rocket 4.2 21:14:37 17° SSE 21:17:52 33° E 21:22:32 10° NE
COSMOS 2455 3.1 21:13:20 10° SSW 21:19:18 72° WNW 21:25:20 10° NNE
Delta 168 4.1 21:22:32 10° SW 21:25:09 20° S 21:25:11 20° S
Cosmos 1812 Rocket 3.5 21:23:50 10° N 21:28:15 82° E 21:30:58 23° S
Tsikada Rocket 4.3 21:24:10 10° SSW 21:30:33 73° W 21:36:57 10° N
USA 238 DEB 4.5 21:30:15 22° SSE 21:33:12 30° ESE 21:39:08 10° NE
USA 238 4.5 21:30:31 23° SE 21:33:19 29° ESE 21:39:14 10° NE
CZ-2C R/B 3.3 21:34:27 10° SW 21:35:46 15° W 21:37:12 10° WNW
H-2A R/B 2.8 21:33:37 15° S 21:36:54 49° W 21:41:07 10° NNW
Cosmos 1900 4.4 21:33:28 10° SSW 21:38:32 62° ESE 21:43:37 10° NE
ARGOS 4.1 21:37:09 25° ESE 21:39:06 33° ENE 21:43:54 10° N
Centaur D AC-29 4.4 21:33:04 10° W 21:40:31 14° WSW 21:44:28 10° SSW
BREEZE-M DEB (TANK) 2.5 21:39:38 10° WNW 21:41:35 42° WSW 21:41:35 42° WSW
Lacrosse 4 Rocket 1.3 21:44:54 10° SSW 21:48:55 83° WNW 21:53:02 10° NNE
MetOp-B 4.1 21:47:41 33° SSE 21:50:09 75° ENE 21:55:31 10° N
Milstar 3 Cent rocket 3.9 21:46:47 10° WSW 21:51:37 19° SW 21:53:18 17° SSW
USA 245 4.3 21:51:08 35° SE 21:53:30 59° ENE 21:58:34 10° N
Cosmos 1992 Rocket 3.9 21:48:17 10° NNW 21:53:33 87° ENE 21:55:34 38° SSE
Cosmos 2369 Rocket 2.3 21:48:09 10° NNW 21:53:45 62° ENE 21:55:45 39° SE
USA 81 4.0 21:51:05 10° N 21:56:23 78° E 21:58:27 38° SSE
Cosmos 2142 Rocket 4.4 21:53:09 10° N 21:59:25 74° E 22:02:05 36° SSE
SeaSat 1 2.4 21:58:17 44° SE 21:59:51 78° ENE 22:04:48 10° NNW
NOAA 11 4.5 22:02:15 41° ESE 22:03:39 51° ENE 22:08:53 10° N
YAOGAN 6 2.5 22:03:34 78° ESE 22:03:43 81° E 22:07:28 10° N
SL-08 RB Rocket 4.1 22:03:34 42° E 22:04:01 44° ENE 22:08:19 10° N
Cosmos 1953 Rocket 3.5 22:03:42 45° S 22:05:02 85° W 22:09:29 10° N
Cosmos 1634 Rocket 3.9 22:01:59 10° N 22:08:11 89° WSW 22:10:54 36° S
Geosat 4.1 22:06:26 10° NE 22:11:20 51° ESE 22:11:23 51° ESE
Cosmos-2242 4.1 22:11:40 10° NNE 22:15:08 32° ENE 22:15:08 32° ENE
CZ-4C R/B 3.9 22:17:02 49° ENE 22:17:02 49° ENE 22:20:44 10° N
CZ-4B R/B 4.1 22:11:48 10° N 22:16:50 56° WNW 22:20:35 18° SW
H-2A R/B 2.8 22:16:38 33° ENE 22:16:54 34° ENE 22:21:24 10° N
Cosmos 2263 4.1 22:19:13 10° NNW 22:24:51 82° ENE 22:25:53 61° SE
SPOT 1/Viking Rocket 3.7 22:24:35 50° SSW 22:25:49 69° WSW 22:30:58 10° NNW
CZ-4C R/B 4.4 22:30:35 11° ENE 22:30:35 11° ENE 22:30:57 10° ENE
Cosmos 1140 Rocket 3.6 22:27:53 54° E 22:27:53 54° E 22:32:40 10° NNE
COSMOS 2406 3.3 22:27:47 56° ESE 22:27:48 56° ESE 22:33:23 10° NNE
Cosmos 2279 Rocket 3.9 22:22:46 10° N 22:29:03 76° E 22:30:28 55° SSE
Atlas Centaur 2 2.9 22:21:36 10° W 22:29:07 65° S 22:31:50 44° SE
Cosmos 1607 4.0 22:29:44 53° ESE 22:29:53 54° ESE 22:35:56 10° NE
Cosmos 676 Rocket 4.4 22:28:14 28° SW 22:30:59 62° WNW 22:36:17 10° N
Cosmos 1932 4.4 22:26:41 20° SSW 22:31:11 84° WNW 22:37:26 10° NNE
Landsat 7 3.8 22:32:57 66° ENE 22:32:57 66° ENE 22:37:36 10° N
Cosmos 1953 3.6 22:32:55 10° N 22:35:30 33° NNE 22:35:30 33° NNE
ATLAS 3B R/B 4.0 22:33:53 10° WSW 22:41:08 43° NW 22:48:18 10° NNE
CARTOSAT-1 4.2 22:42:24 49° NNE 22:42:24 49° NNE 22:45:51 10° N
Terra 2.1 22:49:14 61° NE 22:49:14 61° NE 22:53:25 10° N
Cosmos 1943 Rocket 2.1 22:44:55 10° NNW 22:50:29 72° ENE 22:50:34 72° ENE
DMSP B5D2-2 4.0 22:48:26 10° NNE 22:53:33 82° NE 22:53:33 82° NE
Cosmos 2180 Rocket 4.5 22:47:29 10° N 22:53:48 81° W 22:54:49 64° SSW
USA 234 3.2 22:53:50 60° ESE 22:55:09 82° NE 23:01:44 10° NW
Cosmos 1656 Rocket 4.4 22:55:50 10° N 23:01:04 40° ENE 23:01:04 40° ENE
USA 238 4.5 23:17:43 13° SW 23:23:56 49° NW 23:30:47 10° NNE
Cosmos 1092 Rocket 4.0 23:31:43 72° W 23:31:50 73° W 23:38:08 10° N
Meteor 2-5 Rocket 4.0 23:36:44 69° N 23:36:44 69° N 23:41:47 10° N
Cosmos 2369 Rocket 4.4 23:34:15 10° WNW 23:37:08 14° W 23:37:33 14° WSW
Cosmos 2221 4.5 23:46:13 10° N 23:48:11 26° N 23:48:11 26° N
